Location: D�rnast
(49.6426°N, 11.9755°E)
Time: 12:54:14
(UTC+00:00)

COSMOS 2455 - Pass Details

Date: 24 January 2021
Orbit: 901 x 908 km, 67.1° (Epoch: 27 February)

Event Time Altitude Azimuth Distance (km) Brightness Sun altitude
Rises 17:58:11 0° 242° (WSW) 3,528 7.2 -19.8°
Reaches altitude 10° 18:00:51 10° 250° (WSW) 2,590 6.3 -20.2°
Maximum altitude 18:06:28 40° 319° (NW) 1,327 4.0 -21.1°
Enters shadow 18:11:07 15° 23° (NNE) 2,271 4.7 -21.9°
